Location: Unspecified
(0.0000°N, 0.0000°E)
Time: 21:46:04
(UTC+00:00)

CUTE 1.7 + AOD 2 - Pass Details

Date: 11 December 2017
Orbit: 595 x 613 km, 97.6° (Epoch: 18 January)

Event Time Altitude Azimuth Distance (km) Brightness Sun altitude
Rises 18:33:34 0° 166° (SSE) 2,838 ? -9.2°
Reaches altitude 10° 18:35:44 10° 165° (SSE) 1,936 ? -9.7°
Maximum altitude 18:39:55 77° 79° (E) 619 ? -10.7°
Drops below altitude 10° 18:44:08 10° 353° (N) 1,937 ? -11.6°
Sets 18:46:18 0° 352° (N) 2,840 ? -12.1°
